Wind_Speed
6 6 7 7 7 7 7 7 7 7 7 7 8 10 10 10 11 12 13 15 16 16 16 16 16 16 16 17 18 20 20 20 19 18 18 17 16 15 14 13 12 10 9
5 5 5 6 6 6 6 6 6 6 6 6 7 8 9 9 10 11 12 14 16 17 17 17 17 17 17 17 18 20 21 22 22 21 20 19 18 18 17 16 14 13 11
4 4 5 5 5 5 6 6 6 5 5 6 6 6 7 8 9 10 10 12 14 16 17 18 18 18 19 18 18 19 21 22 23 23 22 22 21 20 19 18 17 16 13
3 4 4 5 5 5 5 6 6 5 6 6 6 6 7 8 8 9 10 11 13 15 16 17 18 18 19 19 19 20 21 23 24 24 25 24 23 22 21 21 20 19 16
3 3 4 4 5 5 5 5 6 5 5 5 6 6 7 8 8 9 10 11 12 14 15 16 17 17 18 18 19 21 22 22 24 25 26 27 26 25 24 23 22 21 20
2 3 4 4 5 5 5 5 6 6 6 6 6 6 6 8 8 9 10 11 13 14 14 15 16 16 17 18 19 20 22 22 23 25 26 27 28 28 28 26 25 24 22
2 2 3 4 5 5 6 6 6 6 6 6 6 6 7 7 8 9 10 11 12 13 14 15 16 17 17 18 19 20 22 23 23 24 27 27 28 30 30 29 28 27 26
2 2 3 4 5 6 6 6 6 6 7 7 7 7 7 8 8 9 10 11 12 13 14 15 16 17 18 19 20 21 22 23 24 25 27 28 28 29 31 32 31 30 29
2 2 2 4 5 5 6 6 7 7 7 8 8 8 8 8 9 10 11 11 13 14 15 16 17 18 19 19 20 21 22 23 23 25 26 28 30 30 30 31 33 33 33
1 1 1 3 4 5 5 6 7 7 8 9 9 9 10 10 11 11 12 13 13 14 16 17 18 19 19 20 21 22 23 24 25 26 27 27 29 30 31 31 32 34 35
2 1 1 2 3 4 5 6 7 9 10 11 11 11 11 12 12 12 13 14 14 15 16 17 18 19 21 22 22 22 24 25 25 26 28 29 29 30 31 32 32 33 35
4 4 3 4 4 5 6 7 8 10 11 12 13 13 13 13 14 14 14 15 15 15 17 18 19 20 21 23 23 24 25 26 27 28 29 30 30 31 32 33 34 34 35
6 6 6 6 6 7 8 9 10 12 13 14 14 14 15 15 15 15 16 16 16 17 17 18 20 21 22 24 25 26 27 27 28 29 30 31 32 32 33 34 35 35 35
8 8 8 8 9 9 10 11 12 13 14 15 15 16 16 16 16 16 17 17 18 18 18 19 20 21 23 25 26 28 29 30 31 31 32 33 34 34 34 35 36 36 37
11 11 11 11 12 12 13 13 14 15 15 16 16 17 17 17 18 18 18 19 20 20 20 20 20 21 22 24 26 28 29 31 33 34 35 35 36 37 37 37 38 38 38
14 14 15 15 15 15 16 16 16 17 17 18 18 18 18 19 19 20 20 20 21 21 22 22 22 22 22 24 25 27 29 30 33 35 36 37 39 39 40 40 40 40 41
17 18 18 18 18 19 19 19 19 19 19 19 20 20 20 20 21 21 22 22 22 22 23 24 24 24 24 24 25 26 28 30 32 33 36 38 39 41 42 42 43 43 44
20 21 21 21 21 22 22 22 22 22 22 22 22 22 22 23 23 23 23 23 24 24 25 26 26 26 26 26 26 27 28 29 31 33 34 37 39 41 43 43 44 45 46
23 24 24 24 24 25 25 25 25 25 24 24 25 25 25 25 25 25 25 25 26 26 27 27 28 29 29 28 28 28 29 30 31 33 34 36 37 40 42 44 45 46 47
26 26 26 26 27 27 27 27 27 27 27 27 27 27 27 27 28 28 28 28 28 28 28 29 30 30 30 30 30 30 30 31 32 33 34 35 37 39 41 43 45 47 48
28 28 28 29 29 29 29 29 29 29 29 29 29 29 30 30 30 31 31 31 30 30 30 31 31 32 33 32 32 32 32 32 33 34 34 35 36 38 39 41 44 46 47
30 30 30 31 31 31 31 31 31 31 31 31 31 32 32 32 33 33 33 33 33 33 33 33 33 34 34 34 34 34 34 34 34 35 35 36 37 37 38 40 41 43 46
32 32 32 32 31 31 32 33 33 33 34 34 34 34 34 35 35 36 36 36 36 36 36 35 35 36 36 36 36 36 35 35 35 36 36 36 38 38 38 39 40 42 44
33 33 33 33 33 33 34 35 35 36 36 37 37 37 37 38 39 39 38 38 38 38 38 37 37 38 38 38 38 37 37 36 36 37 37 37 38 39 39 39 39 41 43
34 35 35 36 36 36 37 38 39 39 40 40 40 41 41 41 42 42 42 41 41 41 41 40 40 40 40 40 40 39 38 38 37 37 38 38 38 39 39 39 40 40 42
37 38 38 39 39 40 40 42 43 43 43 43 44 44 44 44 45 45 45 44 44 44 45 44 42 42 41 41 41 41 40 39 38 38 39 39 39 39 39 39 40 41 41
Wind_Direction
302 304 307 308 308 308 308 308 306 297 291 283 274 267 262 259 255 253 248 245 243 244 247 247 248 245 241 237 231 227 226 224 225 225 227 228 227 225 224 224 223 223 222
307 311 313 313 312 312 311 310 313 305 295 287 280 273 265 264 259 261 258 250 247 248 251 252 252 249 245 244 240 233 229 227 226 225 227 228 229 228 227 227 227 226 226
315 321 325 325 322 319 317 318 322 314 307 299 290 281 272 266 265 265 261 259 254 252 254 255 256 252 249 246 245 241 237 232 228 226 226 228 230 230 229 229 229 229 229
327 336 335 336 334 332 329 328 331 322 313 305 297 289 281 276 271 269 264 263 261 260 259 258 257 254 252 250 247 245 243 236 231 229 227 227 230 231 230 230 229 230 231
347 354 353 349 348 348 346 342 340 337 329 316 305 297 288 281 274 272 269 264 264 264 262 260 260 257 256 253 249 246 244 241 237 234 230 229 229 231 231 230 230 230 231
7 9 7 4 360 357 353 348 344 342 339 333 323 309 299 287 279 275 271 267 267 267 265 264 261 259 257 255 254 250 246 246 243 240 236 233 232 230 231 231 231 231 231
32 26 25 23 16 11 7 1 356 351 345 337 329 320 311 301 292 285 279 275 272 269 266 265 264 261 259 258 256 252 249 249 247 244 241 240 237 233 231 231 231 232 232
70 58 44 36 28 23 19 17 14 9 2 351 340 329 317 307 301 296 288 281 277 274 269 266 264 264 263 260 259 256 254 253 249 247 245 241 240 237 235 234 233 233 234
88 63 43 33 26 24 22 19 17 12 5 357 348 337 327 316 307 300 295 289 283 278 275 272 269 267 265 263 260 260 259 256 253 251 250 246 242 241 239 237 236 234 234
112 51 25 17 12 9 10 10 7 3 358 352 346 340 332 323 314 306 299 293 288 283 278 274 271 268 267 265 263 261 261 259 257 255 252 251 247 245 244 242 240 237 236
227 267 312 337 346 347 349 351 351 349 346 344 340 334 328 322 316 310 304 298 291 286 282 278 275 271 268 267 266 264 261 261 259 257 256 254 251 249 247 246 244 243 241
243 257 278 300 312 319 323 327 332 333 333 333 333 330 325 321 316 310 305 300 295 290 285 281 278 275 272 269 268 266 264 262 260 258 257 256 253 252 249 248 246 246 244
255 263 277 291 298 302 307 312 318 321 322 323 324 324 323 319 315 311 306 302 298 293 288 284 280 277 274 272 270 268 265 263 261 260 259 257 256 254 252 250 249 248 246
262 268 275 283 290 294 297 302 309 314 316 318 318 319 320 318 314 311 307 305 301 297 292 288 284 281 278 274 272 270 268 265 263 261 259 258 257 256 254 253 250 248 247
264 269 274 279 285 289 292 297 302 306 309 311 312 313 313 314 313 309 306 305 302 299 295 291 288 285 283 280 276 273 270 267 265 262 260 259 258 256 255 254 252 250 248
265 269 274 278 282 286 289 292 297 300 303 306 306 307 308 308 309 309 306 303 302 299 297 295 292 289 287 284 281 278 274 271 268 265 262 260 258 257 255 254 252 251 249
267 270 274 278 281 284 286 288 291 295 297 300 302 303 304 305 306 305 304 302 300 298 297 296 294 292 290 288 285 281 278 275 272 268 265 263 260 258 256 254 252 251 250
270 272 275 278 281 284 285 286 288 291 293 297 299 300 301 302 303 303 303 301 300 298 296 295 294 293 292 290 289 285 282 278 275 272 269 266 263 261 258 256 253 251 250
272 274 276 279 282 284 285 286 288 290 292 294 296 297 299 300 301 301 301 301 300 298 296 295 293 292 292 291 291 289 285 282 278 275 272 270 267 264 261 258 255 253 251
273 276 278 280 283 284 286 287 288 290 291 293 295 297 297 299 300 300 300 300 299 298 297 295 293 292 291 292 292 290 288 285 281 278 275 273 270 268 264 260 257 255 253
275 277 279 281 283 285 286 286 288 290 291 293 294 296 296 297 298 299 298 298 298 297 297 295 293 292 291 292 292 291 289 287 284 280 278 275 273 270 267 264 260 257 255
277 278 280 282 284 285 286 287 288 290 291 292 293 294 295 295 296 297 297 296 296 296 296 295 293 291 290 291 291 290 289 288 285 283 280 278 275 272 269 266 263 259 257
279 281 282 284 285 285 286 287 288 290 291 292 292 293 294 295 294 294 294 294 294 294 294 294 293 291 290 290 290 290 289 288 286 284 282 279 277 274 271 269 265 262 258
279 281 282 284 285 285 286 287 287 289 290 291 292 292 293 294 293 292 292 292 293 293 293 293 292 291 290 289 289 289 288 287 286 284 283 280 277 275 273 270 267 264 260
279 281 282 283 284 285 287 288 288 288 289 290 290 291 292 292 292 291 290 291 292 292 292 291 291 290 289 288 288 288 287 287 286 284 283 281 278 276 274 271 268 266 262
279 281 283 283 283 285 286 287 288 288 289 289 290 290 290 290 289 288 289 289 290 290 290 290 289 288 288 287 286 286 286 285 284 283 282 280 278 276 274 271 269 267 264
Height
5887 5887 5886 5885 5884 5884 5883 5882 5882 5881 5881 5881 5882 5882 5882 5882 5883 5883 5884 5885 5886 5887 5888 5888 5889 5890 5891 5892 5894 5896 5898 5900 5902 5904 5905 5907 5909 5910 5911 5913 5914 5915 5916
5886 5885 5884 5884 5883 5882 5882 5881 5880 5880 5879 5879 5879 5879 5880 5880 5880 5881 5881 5882 5883 5884 5884 5885 5886 5886 5888 5889 5891 5893 5894 5896 5898 5900 5903 5905 5906 5908 5909 5911 5912 5914 5915
5884 5884 5883 5882 5881 5881 5880 5879 5879 5878 5878 5878 5878 5878 5878 5878 5878 5878 5878 5879 5879 5880 5881 5882 5882 5883 5884 5885 5887 5888 5890 5892 5894 5896 5899 5901 5903 5905 5907 5908 5910 5912 5913
5883 5882 5882 5881 5880 5880 5879 5878 5878 5877 5877 5876 5876 5876 5876 5876 5876 5876 5876 5876 5876 5877 5877 5878 5879 5879 5880 5881 5883 5884 5886 5888 5890 5892 5895 5897 5900 5902 5904 5905 5907 5909 5911
5882 5881 5881 5880 5880 5879 5878 5877 5877 5876 5876 5875 5875 5874 5874 5874 5874 5874 5874 5874 5874 5874 5874 5875 5875 5876 5877 5878 5878 5880 5881 5883 5885 5888 5890 5892 5895 5898 5900 5902 5904 5906 5908
5881 5881 5880 5880 5879 5878 5878 5877 5876 5875 5874 5874 5873 5873 5872 5872 5871 5871 5871 5871 5871 5871 5871 5871 5872 5872 5873 5874 5875 5876 5877 5879 5881 5883 5885 5887 5890 5893 5896 5898 5900 5902 5904
5881 5880 5880 5879 5878 5878 5877 5876 5875 5874 5873 5873 5872 5872 5871 5870 5869 5869 5869 5869 5868 5868 5868 5868 5868 5869 5869 5870 5871 5872 5873 5874 5876 5878 5880 5882 5884 5887 5890 5893 5895 5898 5900
5880 5880 5880 5879 5878 5877 5877 5876 5875 5874 5873 5872 5871 5870 5870 5869 5868 5867 5866 5866 5866 5865 5865 5865 5865 5865 5865 5866 5867 5868 5868 5870 5871 5873 5874 5876 5879 5882 5884 5887 5890 5893 5895
5880 5880 5879 5879 5878 5877 5877 5876 5874 5873 5872 5871 5870 5869 5868 5867 5866 5865 5864 5863 5863 5862 5862 5862 5862 5862 5862 5862 5862 5863 5864 5865 5866 5868 5869 5871 5873 5875 5878 5881 5884 5886 5889
5879 5879 5879 5878 5878 5877 5876 5875 5874 5873 5872 5870 5869 5867 5866 5865 5864 5863 5862 5861 5860 5859 5858 5858 5858 5858 5857 5857 5858 5859 5860 5860 5861 5863 5864 5865 5867 5869 5872 5874 5877 5880 5883
5878 5878 5878 5877 5877 5876 5875 5874 5873 5871 5870 5869 5867 5866 5864 5862 5861 5860 5859 5858 5857 5856 5855 5854 5853 5853 5853 5853 5853 5854 5854 5855 5856 5857 5858 5860 5861 5863 5865 5867 5870 5872 5875
5877 5877 5877 5876 5876 5875 5874 5873 5871 5870 5868 5867 5865 5863 5862 5860 5858 5857 5855 5854 5853 5852 5851 5850 5849 5849 5848 5848 5848 5848 5849 5849 5850 5851 5852 5853 5855 5856 5858 5860 5863 5865 5867
5876 5876 5875 5875 5874 5873 5872 5871 5870 5868 5866 5864 5863 5861 5859 5857 5855 5853 5852 5850 5849 5848 5847 5846 5845 5843 5843 5842 5842 5842 5842 5843 5844 5844 5845 5846 5847 5849 5851 5853 5855 5857 5860
5874 5874 5873 5872 5872 5871 5870 5868 5867 5865 5864 5862 5860 5857 5855 5853 5851 5849 5848 5846 5844 5843 5842 5841 5839 5838 5837 5836 5836 5835 5835 5836 5836 5837 5838 5839 5840 5841 5843 5844 5847 5849 5851
5871 5871 5870 5870 5869 5867 5866 5865 5864 5862 5860 5858 5856 5854 5852 5850 5847 5845 5843 5842 5840 5838 5836 5835 5834 5833 5831 5830 5829 5828 5828 5828 5828 5828 5829 5830 5831 5833 5834 5836 5838 5840 5843
5868 5867 5867 5866 5865 5864 5862 5861 5860 5858 5856 5854 5852 5850 5847 5845 5843 5841 5839 5837 5835 5833 5831 5829 5828 5826 5825 5824 5822 5821 5820 5819 5819 5819 5820 5821 5822 5823 5825 5827 5829 5831 5833
5864 5863 5862 5861 5860 5859 5858 5856 5855 5853 5851 5849 5847 5845 5843 5840 5838 5836 5834 5831 5829 5827 5825 5823 5821 5819 5818 5816 5815 5813 5812 5811 5810 5810 5810 5811 5812 5813 5814 5816 5818 5820 5823
5859 5858 5857 5856 5855 5854 5852 5851 5849 5847 5845 5843 5841 5839 5837 5835 5832 5830 5827 5825 5823 5821 5818 5816 5814 5812 5810 5809 5807 5806 5804 5802 5801 5801 5800 5800 5801 5802 5803 5805 5807 5809 5811
5853 5853 5852 5850 5849 5848 5846 5845 5843 5841 5839 5837 5835 5833 5830 5828 5826 5823 5821 5818 5816 5814 5811 5809 5806 5804 5802 5800 5799 5797 5795 5794 5792 5791 5791 5790 5790 5790 5791 5793 5795 5797 5799
5847 5846 5845 5844 5843 5841 5839 5838 5836 5834 5832 5830 5827 5825 5823 5821 5818 5816 5813 5811 5808 5806 5803 5801 5799 5796 5794 5792 5790 5788 5786 5784 5783 5781 5780 5780 5779 5779 5779 5780 5782 5784 5786
5841 5839 5838 5837 5835 5834 5832 5830 5828 5826 5824 5822 5820 5817 5815 5812 5810 5807 5805 5802 5800 5797 5795 5792 5790 5787 5785 5783 5781 5778 5776 5774 5773 5771 5770 5769 5768 5768 5767 5768 5769 5771 5773
5833 5832 5831 5829 5828 5826 5825 5822 5820 5818 5816 5814 5811 5809 5806 5804 5801 5798 5796 5793 5791 5788 5785 5783 5781 5778 5775 5773 5771 5768 5766 5764 5762 5761 5759 5758 5756 5756 5755 5756 5757 5758 5759
5825 5824 5822 5821 5820 5818 5816 5814 5811 5809 5807 5804 5802 5799 5797 5794 5792 5789 5786 5784 5781 5778 5776 5773 5771 5768 5765 5763 5760 5758 5756 5754 5752 5749 5748 5746 5744 5744 5744 5744 5744 5745 5746
5816 5815 5813 5812 5810 5808 5806 5804 5801 5799 5797 5794 5792 5789 5786 5784 5781 5778 5775 5773 5770 5768 5765 5763 5760 5757 5754 5752 5749 5747 5745 5743 5741 5738 5736 5735 5733 5732 5732 5732 5732 5733 5734
5807 5805 5803 5801 5800 5798 5795 5793 5790 5788 5785 5783 5780 5778 5775 5773 5770 5766 5763 5761 5759 5756 5753 5751 5749 5746 5743 5740 5738 5736 5734 5731 5730 5727 5725 5723 5722 5720 5720 5720 5720 5720 5721
5796 5794 5792 5790 5788 5786 5784 5781 5778 5775 5773 5771 5768 5765 5763 5760 5757 5754 5751 5749 5746 5744 5741 5738 5736 5734 5731 5728 5726 5723 5721 5719 5718 5716 5713 5711 5710 5709 5708 5708 5707 5708 5708